Date String (YYYY-MM-DD hh:mm:ss) UTC,Instrument flags,Ambient pressure (hPa),Sample flow (lpm),Bypass flow (lpm),Sample temperature (°C),Ambient temperature (°C),ASC tube jacket temperature (°C),LED temperature (°C),Box temperature (°C),Sample RH (%),Span deviation,Mass concentration (μg/m³),Mass concentration (μg/m³),Mass concentration (μg/m³)
DateTimeUTC,F1_M11,P_M11,Q1_M11,Q2_M11,T1_M11,T2_M11,T3_M11,T4_M11,T5_M11,U1_M11,ZSPAN_M11,X2_M11,X0_M11,X1_M11
2022-03-07 18:00:00,,0829.1,5.02,0.00,22.7,21.8,00.0,31.9,24.4,07.7,0001.9,0004.89,0006.87,0004.77
2022-03-07 18:01:00,,0829.0,5.00,0.00,22.7,21.8,00.0,31.8,24.3,06.8,0002.1,0004.92,0006.99,0004.78
2022-03-07 18:02:00,,0829.0,4.99,0.00,22.7,21.8,00.0,31.8,24.4,06.9,0002.0,0004.95,0007.08,0004.80
2022-03-07 18:03:00,,0829.1,5.00,0.00,22.7,21.9,00.0,31.8,24.5,07.5,0001.7,0004.96,0007.17,0004.80
2022-03-07 18:04:00,,0829.0,5.00,0.00,22.7,21.9,00.0,31.8,24.4,06.8,0001.3,0004.92,0007.10,0004.75
2022-03-07 18:05:00,,0829.0,5.00,0.00,22.7,21.8,00.0,31.8,24.3,06.8,0001.1,0004.93,0006.77,0004.74
2022-03-07 18:06:00,,0829.0,5.00,0.00,22.6,21.8,00.0,31.8,24.3,07.1,0000.7,0004.93,0006.81,0004.73
2022-03-07 18:07:00,,0829.0,4.99,0.00,22.6,21.8,00.0,31.7,24.3,07.2,0000.5,0004.89,0006.76,0004.69
2022-03-07 18:08:00,,0828.9,5.01,0.00,22.6,21.8,00.0,31.7,24.3,06.9,-000.1,0004.82,0006.65,0004.63
2022-03-07 18:09:00,,0829.0,5.00,0.00,22.6,21.8,00.0,31.7,24.4,07.2,-000.0,0004.70,0006.40,0004.52
2022-03-07 18:10:00,,0829.0,5.00,0.00,22.6,21.9,00.0,31.7,24.3,06.8,0000.0,0004.59,0006.16,0004.41
2022-03-07 18:11:00,,0828.9,5.00,0.00,22.6,21.8,00.0,31.7,24.3,06.7,0000.0,0004.49,0005.97,0004.32
2022-03-07 18:12:00,,0828.9,5.00,0.00,22.6,21.9,00.0,31.7,24.4,07.1,0000.0,0004.41,0005.81,0004.25
2022-03-07 18:13:00,,0829.0,5.00,0.00,22.6,21.9,00.0,31.7,24.3,06.8,0000.0,0004.33,0005.61,0004.18
2022-03-07 18:14:00,,0828.9,5.00,0.00,22.6,21.9,00.0,31.7,24.3,06.4,0000.0,0004.25,0005.50,0004.11
2022-03-07 18:15:00,,0828.8,5.02,0.00,22.6,21.9,00.0,31.7,24.4,06.3,0000.0,0004.17,0005.36,0004.04
2022-03-07 18:16:00,,0828.8,4.99,0.00,22.6,21.9,00.0,31.6,24.4,06.7,0000.0,0004.10,0005.19,0003.98
2022-03-07 18:17:00,,0828.9,5.00,0.00,22.7,21.9,00.0,31.6,24.5,06.6,0000.0,0004.07,0005.13,0003.95
2022-03-07 18:18:00,,0828.8,5.00,0.00,22.7,22.0,00.0,31.6,24.5,06.8,0000.0,0004.07,0005.15,0003.93
2022-03-07 18:19:00,,0828.9,5.00,0.00,22.7,22.0,00.0,31.6,24.5,07.7,0000.0,0004.08,0005.18,0003.94
2022-03-07 18:20:00,,0828.8,5.00,0.00,22.7,22.0,00.0,31.7,24.5,07.2,0000.0,0004.14,0005.26,0004.01
2022-03-07 18:21:00,,0829.0,5.00,0.00,22.7,22.0,00.0,31.7,24.4,07.1,0000.0,0004.24,0005.50,0004.09
2022-03-07 18:22:00,,0829.3,5.00,0.00,22.7,21.9,00.0,31.6,24.4,07.0,0000.0,0004.33,0005.72,0004.15
2022-03-07 18:23:00,,0829.3,5.01,0.00,22.7,22.0,00.0,31.6,24.5,07.8,0000.0,0004.40,0005.86,0004.22
2022-03-07 18:24:00,,0829.0,5.00,0.00,22.7,22.0,00.0,31.6,24.5,07.7,0000.0,0004.50,0006.14,0004.30
2022-03-07 18:25:00,,0828.8,5.00,0.00,22.7,22.0,00.0,31.7,24.5,07.2,0000.0,0004.62,0007.26,0004.41
2022-03-07 18:26:00,,0828.7,4.99,0.00,22.7,21.9,00.0,31.7,24.5,07.4,0000.0,0004.75,0007.57,0004.53
2022-03-07 18:27:00,,0828.7,5.00,0.00,22.7,21.9,00.0,31.7,24.4,07.4,0000.0,0004.89,0007.78,0004.65
2022-03-07 18:28:00,,0828.6,5.00,0.00,22.7,21.9,00.0,31.7,24.4,07.6,0000.0,0004.98,0007.88,0004.75
2022-03-07 18:29:00,,0828.6,5.00,0.00,22.6,21.9,00.0,31.6,24.4,07.7,0000.6,0005.04,0007.93,0004.82
2022-03-07 18:30:00,,0828.7,5.00,0.00,22.6,21.9,00.0,31.6,24.4,08.0,0001.4,0005.09,0007.99,0004.86
2022-03-07 18:31:00,,0828.6,5.00,0.00,22.6,21.9,00.0,31.6,24.4,07.5,0001.0,0005.04,0007.96,0004.81
2022-03-07 18:32:00,,0828.7,5.00,0.00,22.6,21.9,00.0,31.6,24.4,06.9,0001.2,0004.95,0007.88,0004.70
2022-03-07 18:33:00,,0828.7,5.00,0.00,22.6,21.9,00.0,31.6,24.4,07.3,0001.2,0004.87,0007.82,0004.61
2022-03-07 18:34:00,,0828.8,5.00,0.00,22.6,21.9,00.0,31.6,24.4,07.8,0001.4,0004.76,0007.69,0004.51
2022-03-07 18:35:00,,0828.6,4.99,0.00,22.6,21.9,00.0,31.6,24.3,08.0,0001.3,0004.66,0007.53,0004.44
2022-03-07 18:36:00,,0828.6,5.01,0.00,22.6,21.8,00.0,31.6,24.3,07.1,0000.8,0004.58,0006.62,0004.35
2022-03-07 18:37:00,,0828.5,5.00,0.00,22.5,21.8,00.0,31.6,24.2,07.1,0000.0,0004.49,0006.29,0004.26
2022-03-07 18:38:00,,0828.7,4.99,0.00,22.5,21.8,00.0,31.6,24.2,06.9,0000.0,0004.41,0006.15,0004.16
2022-03-07 18:39:00,,0828.5,5.00,0.00,22.5,21.7,00.0,31.6,24.2,06.9,0000.0,0004.35,0006.10,0004.08
2022-03-07 18:40:00,,0828.7,5.00,0.00,22.5,21.7,00.0,31.6,24.2,06.8,0000.0,0004.25,0005.93,0003.98
2022-03-07 18:41:00,,0828.9,5.00,0.00,22.4,21.7,00.0,31.6,24.1,06.6,0000.0,0004.18,0006.21,0003.90
2022-03-07 18:42:00,,0829.0,5.00,0.00,22.4,21.7,00.0,31.5,24.1,07.5,0000.0,0004.15,0006.32,0003.88
2022-03-07 18:43:00,,0828.9,5.02,0.00,22.4,21.7,00.0,31.5,24.1,07.2,0000.0,0004.18,0006.39,0003.91
2022-03-07 18:44:00,,0829.0,4.98,0.00,22.4,21.6,00.0,31.5,24.1,07.2,0000.0,0004.21,0007.46,0003.95
2022-03-07 18:45:00,,0828.4,4.99,0.00,22.4,21.6,00.0,31.5,24.1,06.8,0000.0,0004.26,0007.76,0003.98
2022-03-07 18:46:00,,0828.5,5.02,0.00,22.4,21.6,00.0,31.5,24.1,07.1,0000.0,0004.30,0008.32,0003.99
2022-03-07 18:47:00,,0828.4,5.00,0.00,22.4,21.6,00.0,31.5,24.2,07.6,0000.0,0004.29,0008.25,0003.97
2022-03-07 18:48:00,,0828.4,5.00,0.00,22.4,21.7,00.0,31.5,24.2,07.3,0000.0,0004.27,0008.19,0003.97
2022-03-07 18:49:00,,0828.5,5.00,0.00,22.4,21.7,00.0,31.5,24.2,07.5,0000.0,0004.25,0008.10,0003.98
2022-03-07 18:50:00,,0828.4,5.00,0.00,22.4,21.7,00.0,31.5,24.2,07.1,0000.0,0004.23,0008.02,0003.99
2022-03-07 18:51:00,,0828.4,5.00,0.00,22.5,21.7,00.0,31.5,24.2,07.4,0000.0,0004.28,0008.11,0004.02
2022-03-07 18:52:00,,0828.4,5.00,0.00,22.5,21.8,00.0,31.5,24.3,08.7,0000.0,0004.33,0007.98,0004.06
2022-03-07 18:53:00,,0828.4,5.00,0.00,22.5,21.8,00.0,31.5,24.3,08.4,0000.0,0004.37,0007.93,0004.09
2022-03-07 18:54:00,,0828.4,5.00,0.00,22.5,21.8,00.0,31.5,24.2,07.7,0000.0,0004.38,0007.90,0004.12
2022-03-07 18:55:00,,0828.4,5.01,0.00,22.5,21.8,00.0,31.5,24.2,07.7,0000.0,0004.38,0007.24,0004.13
2022-03-07 18:56:00,,0828.4,5.00,0.00,22.4,21.7,00.0,31.5,24.1,07.4,0000.0,0004.38,0006.94,0004.11
2022-03-07 18:57:00,,0828.3,4.99,0.00,22.4,21.7,00.0,31.4,24.2,07.6,0000.0,0004.35,0006.09,0004.10
2022-03-07 18:58:00,,0828.3,5.00,0.00,22.4,21.7,00.0,31.4,24.2,07.6,0000.0,0004.34,0006.11,0004.10
2022-03-07 18:59:00,,0828.4,5.00,0.00,22.5,21.7,00.0,31.4,24.2,07.1,0000.0,0004.34,0006.16,0004.08
